KE9DBJ-13 Weather Reports


time (UTC)temp
C
wind
direction
speed
KPH
gust
KPH
rain 1hr
cm
rain 24hr
cm
rain mn
cm
humidity
%
barometer
mb
20260509023003 14 13 0.0 4.8 0.00 0.00 0.00 77 1009.4
20260509022003 15 0.0 0.0 0.00 0.00 0.00 78 1009.3
20260509021002 15 0.0 0.0 0.00 0.00 0.00 68 1009.3
20260509020002 15 0.0 0.0 0.00 0.00 0.00 67 1009.1
20260509015002 15 0.0 0.0 0.00 0.00 0.00 71 1009.1
20260509014002 15 0.0 0.0 0.00 0.00 0.00 66 1009.0
20260509013002 15 135 0.0 1.6 0.00 0.00 0.00 65 1008.9
20260509012002 16 0.0 1.6 0.00 0.00 0.00 61 1008.9
20260509011002 16 180 0.0 3.2 0.00 0.00 0.00 65 1008.9
20260509010002 16 180 0.0 3.2 0.00 0.00 0.00 62 1008.9
20260509005002 16 180 0.0 3.2 0.00 0.00 0.00 57 1008.8
20260509004002 16 0.0 3.2 0.00 0.00 0.00 57 1008.8
20260509003002 17 270 0.0 3.2 0.00 0.00 0.00 56 1008.7
20260509002002 17 180 0.0 3.2 0.00 0.00 0.00 54 1008.7
20260509001003 17 182 0.0 3.2 0.00 0.00 0.00 54 1008.6
20260509000003 17 174 0.0 4.8 0.00 0.00 0.00 51 1008.8
20260508235003 17 187 0.0 3.2 0.00 0.00 0.00 53 1008.6
20260508234003 18 180 0.0 3.2 0.00 0.00 0.00 52 1008.6
20260508233003 18 176 0.0 4.8 0.00 0.00 0.00 51 1008.6
20260508232002 19 141 0.0 4.8 0.00 0.00 0.00 51 1008.6
20260508231002 19 148 0.0 4.8 0.00 0.00 0.00 50 1008.7
20260508230002 20 135 0.0 8.0 0.00 0.00 0.00 46 1008.4
20260508225002 20 160 0.0 6.4 0.00 0.00 0.00 50 1008.4
20260508224002 20 191 0.0 3.2 0.00 0.00 0.00 48 1008.4
20260508223002 21 132 0.0 6.4 0.00 0.00 0.00 47 1008.2
20260508222002 21 148 0.0 6.4 0.00 0.00 0.00 47 1008.2
20260508221002 21 6 0.0 4.8 0.00 0.00 0.00 42 1008.2
20260508220002 22 88 0.0 4.8 0.00 0.00 0.00 41 1008.1
20260508215002 21 155 0.0 9.7 0.00 0.00 0.00 41 1008.2
20260508214002 22 98 0.0 6.4 0.00 0.00 0.00 42 1008.2
20260508213003 22 75 0.0 11.3 0.00 0.00 0.00 37 1008.1
20260508212003 22 198 0.0 11.3 0.00 0.00 0.00 37 1008.3
20260508211003 22 255 0.0 6.4 0.00 0.00 0.00 40 1008.3
20260508210003 23 109 0.0 8.0 0.00 0.00 0.00 38 1008.4
20260508205002 23 104 0.0 11.3 0.00 0.00 0.00 35 1008.6
20260508204002 23 278 0.0 9.7 0.00 0.00 0.00 35 1008.8
20260508203002 22 32 0.0 8.0 0.00 0.00 0.00 39 1009.1
20260508202002 21 277 0.0 11.3 0.00 0.00 0.00 42 1009.4
20260508201002 22 299 0.0 8.0 0.00 0.00 0.00 40 1009.5
20260508200002 22 29 0.0 11.3 0.00 0.00 0.00 37 1009.6
20260508195002 21 355 0.0 8.0 0.00 0.00 0.00 41 1009.7
20260508194002 21 285 0.0 9.7 0.00 0.00 0.00 43 1009.9
20260508193002 21 45 0.0 11.3 0.00 0.00 0.00 38 1010.1
20260508192002 23 19 0.0 9.7 0.00 0.00 0.00 37 1009.9
20260508191002 23 30 0.0 9.7 0.00 0.00 0.00 35 1009.8
20260508190002 24 315 0.0 12.9 0.00 0.00 0.00 35 1009.9
20260508185003 24 351 0.0 14.5 0.00 0.00 0.00 36 1010.1
20260508184003 23 84 0.0 11.3 0.00 0.00 0.00 34 1010.4
20260508183003 24 301 0.0 11.3 0.00 0.00 0.00 38 1010.6
20260508182003 23 331 0.0 12.9 0.00 0.00 0.00 39 1010.9
20260508181003 21 299 0.0 11.3 0.00 0.00 0.00 40 1011.2
20260508180002 22 306 0.0 9.7 0.00 0.00 0.00 41 1011.1
20260508175002 23 215 0.0 11.3 0.00 0.00 0.00 36 1011.3
20260508174002 22 360 0.0 16.1 0.00 0.00 0.00 39 1011.6
20260508173002 23 308 0.0 14.5 0.00 0.00 0.00 39 1011.5
20260508172002 23 311 0.0 9.7 0.00 0.00 0.00 41 1011.9
20260508171002 22 351 0.0 8.0 0.00 0.00 0.00 41 1011.9
20260508170002 22 296 0.0 8.0 0.00 0.00 0.00 42 1012.3
20260508165002 22 44 0.0 11.3 0.00 0.00 0.00 41 1012.6
20260508164002 21 10 0.0 12.9 0.00 0.00 0.00 39 1012.8
20260508163002 21 324 0.0 8.0 0.00 0.00 0.00 44 1013.0
20260508162002 21 317 0.0 9.7 0.00 0.00 0.00 43 1013.1
20260508161003 21 356 0.0 8.0 0.00 0.00 0.00 44 1013.2
20260508160003 21 309 0.0 11.3 0.00 0.00 0.00 43 1013.2
20260508155003 21 283 0.0 8.0 0.00 0.00 0.00 46 1013.3
20260508154003 21 307 0.0 8.0 0.00 0.00 0.00 43 1013.5
20260508153003 21 360 0.0 17.7 0.00 0.00 0.00 43 1013.8
20260508152002 21 27 0.0 8.0 0.00 0.00 0.00 43 1013.9
20260508151002 20 193 0.0 9.7 0.00 0.00 0.00 46 1013.9
20260508150003 20 71 0.0 9.7 0.00 0.00 0.00 45 1014.1
20260508145002 20 300 0.0 12.9 0.00 0.00 0.00 48 1014.1
20260508144002 19 334 0.0 8.0 0.00 0.00 0.00 47 1014.2
20260508143002 18 336 0.0 8.0 0.00 0.00 0.00 47 1014.4
20260508142002 17 13 0.0 6.4 0.00 0.00 0.00 52 1014.5
20260508141002 17 290 0.0 8.0 0.00 0.00 0.00 55 1014.5
20260508140002 15 307 0.0 6.4 0.00 0.00 0.00 56 1014.6
20260508135002 14 293 0.0 6.4 0.00 0.00 0.00 63 1014.7
20260508134002 12 263 0.0 8.0 0.00 0.00 0.00 74 1015.0
20260508133002 11 96 0.0 4.8 0.00 0.00 0.00 74 1015.1
20260508132003 10 253 0.0 3.2 0.00 0.00 0.00 88 1015.1
20260508131003 10 109 0.0 4.8 0.00 0.00 0.00 93 1015.3
20260508130003 8 326 0.0 3.2 0.00 0.00 0.00 99 1015.3
20260508125003 8 86 0.0 3.2 0.00 0.00 0.00 99 1015.3
20260508124003 7 26 0.0 3.2 0.00 0.00 0.00 99 1015.3
20260508123002 6 45 0.0 3.2 0.00 0.00 0.00 99 1015.3
20260508122002 6 0.0 0.0 0.00 0.00 0.00 99 1015.3
20260508121002 5 0.0 0.0 0.00 0.00 0.00 99 1015.3
20260508120002 5 45 0.0 3.2 0.00 0.00 0.00 99 1015.4
20260508115002 5 225 0.0 3.2 0.00 0.00 0.00 99 1015.2
20260508114002 4 162 0.0 3.2 0.00 0.00 0.00 99 1015.2
20260508113002 3 0.0 0.0 0.00 0.00 0.00 99 1015.1
20260508112002 3 0.0 0.0 0.00 0.00 0.00 99 1015.1
20260508111002 3 0.0 0.0 0.00 0.00 0.00 99 1015.0
20260508110002 3 0.0 0.0 0.00 0.00 0.00 99 1015.0
20260508105002 3 0.0 0.0 0.00 0.00 0.00 99 1015.0
20260508104003 3 0.0 0.0 0.00 0.00 0.00 99 1015.0
20260508103003 3 158 0.0 1.6 0.00 0.00 0.00 99 1015.0
20260508102003 3 158 0.0 3.2 0.00 0.00 0.00 99 1015.0
20260508101003 3 0.0 0.0 0.00 0.00 0.00 99 1014.9
20260508100002 3 158 0.0 1.6 0.00 0.00 0.00 99 1015.1
20260508095002 3 0.0 0.0 0.00 0.00 0.00 99 1015.1
20260508094003 3 0.0 0.0 0.00 0.00 0.00 99 1015.0
20260508093002 3 0.0 0.0 0.00 0.00 0.00 99 1015.0
20260508092002 3 0.0 0.0 0.00 0.00 0.00 99 1015.0
20260508091002 3 0.0 0.0 0.00 0.00 0.00 99 1015.0
20260508090002 3 0.0 0.0 0.00 0.00 0.00 99 1015.0
20260508085002 3 0.0 0.0 0.00 0.00 0.00 99 1015.0
20260508084002 3 0.0 0.0 0.00 0.00 0.00 99 1015.0
20260508083002 2 0.0 0.0 0.00 0.00 0.00 99 1015.0
20260508082002 2 0.0 0.0 0.00 0.00 0.00 99 1015.0
20260508081002 3 0.0 0.0 0.00 0.00 0.00 99 1015.0
20260508080003 3 0.0 0.0 0.00 0.00 0.00 99 1015.0
20260508075003 3 0.0 0.0 0.00 0.00 0.00 99 1015.0
20260508074003 3 0.0 0.0 0.00 0.00 0.00 99 1015.0
20260508073003 3 0.0 0.0 0.00 0.00 0.00 99 1014.9
20260508072002 3 0.0 0.0 0.00 0.00 0.00 99 1015.0
20260508071002 3 0.0 0.0 0.00 0.00 0.00 99 1015.0
20260508070002 3 0.0 0.0 0.00 0.00 0.00 99 1015.3
20260508065002 3 0.0 0.0 0.00 0.00 0.00 99 1015.4
20260508064002 3 0.0 0.0 0.00 0.00 0.00 99 1015.5
20260508063002 3 0.0 0.0 0.00 0.00 0.00 99 1015.6
20260508062002 3 0.0 0.0 0.00 0.00 0.00 99 1015.6
20260508061002 3 0.0 0.0 0.00 0.00 0.00 99 1015.8
20260508060002 3 0.0 0.0 0.00 0.00 0.00 99 1015.8
20260508055002 3 0.0 0.0 0.00 0.00 0.00 99 1015.7
20260508054002 4 0.0 0.0 0.00 0.00 0.00 99 1015.6
20260508053002 4 0.0 0.0 0.00 0.00 0.00 99 1015.6
20260508052002 4 0.0 0.0 0.00 0.00 0.00 99 1015.6
20260508051003 4 176 0.0 3.2 0.00 0.00 0.00 99 1015.6
20260508050003 4 211 0.0 3.2 0.00 0.00 0.00 99 1015.6
20260508045003 4 158 0.0 3.2 0.00 0.00 0.00 99 1015.6
20260508044003 4 0.0 0.0 0.00 0.00 0.00 99 1015.8
20260508043002 4 0.0 0.0 0.00 0.00 0.00 99 1015.7
20260508042002 5 0.0 0.0 0.00 0.00 0.00 99 1015.6
20260508041002 5 0.0 0.0 0.00 0.00 0.00 99 1015.6
20260508040002 5 0.0 0.0 0.00 0.00 0.00 99 1015.6
20260508035002 5 0.0 0.0 0.00 0.00 0.00 99 1015.7
20260508034002 5 0.0 0.0 0.00 0.00 0.00 98 1015.6
20260508033002 5 202 0.0 3.2 0.00 0.00 0.00 98 1015.6
20260508032002 5 0.0 0.0 0.00 0.00 0.00 97 1015.5
20260508031002 5 0.0 0.0 0.00 0.00 0.00 97 1015.5
20260508030002 5 0.0 0.0 0.00 0.00 0.00 95 1015.5
20260508025002 5 0.0 0.0 0.00 0.00 0.00 94 1015.3
20260508024002 6 0.0 0.0 0.00 0.00 0.00 92 1015.3